Location: Newark
(36.0797°N, 3.9744°E)
Time: 21:15:33
(UTC+00:00)

Vanguard 2 Rocket - Pass Details

Date: 12 December 2019
Orbit: 554 x 3326 km, 32.9° (Epoch: 18 January)

Event Time Altitude Azimuth Distance (km) Brightness Sun altitude
Rises 22:47:51 0° 277° (W) 4,322 - -73.1°
Reaches altitude 10° 22:52:03 10° 263° (W) 2,868 - -73.7°
Maximum altitude 22:56:42 21° 217° (SW) 1,756 - -74.3°
Drops below altitude 10° 23:00:13 10° 168° (SSE) 2,079 - -74.7°
Sets 23:02:42 0° 150° (SSE) 2,826 - -75.0°
